Regional Weather Roundup
Issued by NWS

Home | Current Version | Previous Version | Graphics & Text | Print | Product List | Glossary On
Versions: 1 2 3 4 5 6 7 8 9 10 11 12 13 14 15 16 17 18 19 20 21 22 23 24 25 26 27 28 29 30 31 32 33 34 35 36 37 38 39 40 41 42 43 44 45 46 47 48 49 50
236
ASUS45 KPSR 120910
RWRAZ

ARIZONA HOURLY REGIONAL WEATHER ROUNDUP
NATIONAL WEATHER SERVICE PHOENIX AZ
200 AM MST TUE DEC 12 2017

NOTE: FAIR INDICATES FEW OR NO CLOUDS BELOW 12,000 FEET WITH NO
SIGNIFICANT WEATHER AND/OR OBSTRUCTIONS TO VISIBILITY.

AZZ001>003-036-121000-
NORTHWEST ARIZONA

CITY           SKY/WX    TMP DP  RH WIND       PRES   REMARKS
BULLHEAD CITY  CLEAR     63   0   8 NE24G32   30.26F
KINGMAN        PTCLDY    31  -3  23 E8        30.37R WCI  23
$$

AZZ004>008-015-016-018-121000-
NORTH CENTRAL ARIZONA

CITY           SKY/WX    TMP DP  RH WIND       PRES   REMARKS
GRAND CANYON   PTCLDY    16 -15  24 NE6       30.49S WCI   7
WILLIAMS       PTCLDY    21  -6  30 SE8       30.43S WCI  12
PRESCOTT       PTCLDY    28  -4  25 S6        30.40S WCI  22
FLAGSTAFF      PTCLDY    19  -8  30 CALM      30.46S
PAYSON         CLEAR     48  -9   9 N9        30.36S
PAGE           PTCLDY    31  12  45 CALM      30.49S
$$

AZZ009>014-017-121000-
NORTHEAST ARIZONA

CITY           SKY/WX    TMP DP  RH WIND       PRES   REMARKS
WINSLOW        CLOUDY    14 -10  33 SE3       30.49R
SAINT JOHNS    CLOUDY    12  -6  44 CALM      30.48R
WINDOW ROCK    MOCLDY    14  -8  37 CALM      30.51
SHOW LOW       MOCLDY    21  -4  33 NE7       30.46F WCI  13
$$

AZZ540-542>544-546-548-121000-
GREATER PHOENIX AREA

CITY           SKY/WX    TMP DP  RH WIND       PRES   REMARKS
PHOENIX        PTCLDY    49  21  33 SW3       30.21S
BUCKEYE        CLEAR     48  -4  11 N8        30.22F
LUKE AFB       CLEAR     49  11  21 N3        30.21S
DEER VALLEY    CLEAR     48   1  14 CALM      30.22S
SCOTTSDALE     CLEAR     47  20  34 CALM      30.24R
$$

AZZ539-553-121000-
SOUTHWEST MARICOPA COUNTY AND PINAL COUNTY

CITY           SKY/WX    TMP DP  RH WIND       PRES   REMARKS
CASA GRANDE    NOT AVBL
$$

AZZ503-504-507>509-121000-
SOUTHEAST ARIZONA

CITY           SKY/WX    TMP DP  RH WIND       PRES   REMARKS
TUCSON         CLOUDY    60  21  22 SE9       30.26S
DAVIS-MONTHAN  CLOUDY    57  20  24 SE10      30.24S
NOGALES        PTCLDY    45  19  35 E7        30.28S
SIERRA VISTA   PTCLDY    41  17  38 CALM      30.33S
DOUGLAS        PTCLDY    36  18  48 CALM      30.33R
SAFFORD        MOCLDY    49   7  18 E9        30.33R
$$

AZZ532-121000-
SOUTHWEST ARIZONA

CITY           SKY/WX    TMP DP  RH WIND       PRES   REMARKS
YUMA           CLEAR     59   5  11 N7        30.19F
$$

CAZ041-043-047-048-061-525>527-560>570-121000-
SOUTHERN CALIFORNIA

CITY           SKY/WX    TMP DP  RH WIND       PRES   REMARKS
DOWNTOWN L.A.  CLEAR     60   8  12 NE3       30.18S
L.A. AIRPORT   PTCLDY    61  14  16 NE3       30.19S
SAN DIEGO      CLEAR     56  22  26 CALM      30.20R
BURBANK        CLEAR     49  16  26 CALM      30.20S
ONTARIO        PTCLDY    51  20  29 CALM      30.21S
RIVERSIDE      CLEAR     50  13  22 E5        30.22S
PALM SPRINGS   CLEAR     62   0   8 W6        30.24F
EL CENTRO NAS  CLEAR     48   2  15 W8        30.23R
IMPERIAL       CLEAR     47  10  22 SW5       30.20S
BLYTHE         CLEAR     50  -3  11 SW8       30.24S
NEEDLES        CLEAR     53  -2  10 NW8       30.28S
$$

NVZ020-UTZ003-121000-
SOUTHERN NEVADA-UTAH

CITY           SKY/WX    TMP DP  RH WIND       PRES   REMARKS
LAS VEGAS      CLEAR     42  -3  15 SW7       30.36S
SALT LAKE CITY FOG       25  23  92 CALM      30.61R VSB 1/4
$$

NMZ009-TXZ055-121000-
NEW MEXICO-WEST TEXAS

CITY           SKY/WX    TMP DP  RH WIND       PRES   REMARKS
ALBUQUERQUE    CLOUDY    34   3  27 NE9       30.48R WCI  27
EL PASO        PTCLDY    35  20  54 N7        30.39R WCI  29
$$


........................KEY........................
SKY/WX - SKY CONDITION/WEATHER
TMP    - TEMPERATURE IN FAHRENHEIT
DP     - DEW POINT IN FAHRENHEIT
RH     - RELATIVE HUMIDITY IN PERCENT
WIND   - DIRECTION AND SPEED IN MILES PER HOUR (MPH)
VRB    - VARIABLE WIND DIRECTION
PRES   - MEAN SEA LEVEL PRESSURE IN INCHES OF MERCURY
         F - FALLING PRESSURE   R - RISING PRESSURE
         S - STEADY PRESSURE
VSB    - VISIBILITY IN MILES
HX     - HEAT INDEX IN FAHRENHEIT
WCI    - WIND CHILL INDEX IN FAHRENHEIT
TC     - TEMPERATURE IN CELSIUS WHICH IS ALSO KNOWN AS
         TEMPERATURE IN CENTIGRADE
AFB    - AIR FORCE BASE
         LUKE AFB IS LUKE AIR FORCE BASE
         DAVIS-MONTHAN IS DAVIS-MONTHAN AIR FORCE BASE
NAS    - NAVAL AIR STATION
         EL CENTRO NAS IS EL CENTRO NAVAL AIR STATION
N/A    - NOT AVAILABLE





USA.gov is the U.S. government's official web portal to all federal, state and local government web resources and services.